Regional Weather Roundup
Issued by NWS

Home | Current Version | Previous Version | Text Only | Print | Product List | Glossary On
Versions: 1 2 3 4 5 6 7 8 9 10 11 12 13 14 15 16 17 18 19 20 21 22 23 24 25 26 27 28 29 30 31 32 33 34 35 36 37 38 39 40 41 42 43 44 45 46 47 48 49 50
000
ASUS43 KMPX 190210
RWRMN
WEATHER ROUNDUP FOR MINNESOTA
NATIONAL WEATHER SERVICE TWIN CITIES/CHANHASSEN MN
900 PM CDT THU SEP 18 2014


NOTE: "FAIR" INDICATES FEW OR NO CLOUDS BELOW 12,000 FEET WITH NO
SIGNIFICANT WEATHER AND/OR OBSTRUCTIONS TO VISIBILITY. N/A MEANS
CURRENT SKY AND/OR WEATHER CONDITIONS ARE NOT AVAILABLE.

MNZ060>063-068>070-190300-
   Twin Cities Metro

CITY           SKY/WX    TMP DP  RH WIND       PRES   REMARKS
TWIN CITIES    MOCLDY    63  57  81 SE10      30.00S
ST PAUL        CLEAR     63  57  81 SE13      30.01S
CRYSTAL        CLEAR     66  56  70 SE10      29.98S
LAKEVILLE      CLEAR     57  54  88 SE3       30.02R
EDEN PRAIRIE   CLEAR     62  53  72 SE8       29.98S
SOUTH ST PAUL    N/A     64  57  78 SE7       30.01S HAZE
LAKE ELMO      FAIR      61  57  88 SE6       30.03R
$$
MNZ001>005-007-008-013>017-022>024-027-028-190300-
   Northwest Minnesota

CITY           SKY/WX    TMP DP  RH WIND       PRES   REMARKS
BEMIDJI        PTCLDY    56  53  87 SE12G17   29.87F
HALLOCK        CLOUDY    66  57  72 S16       29.68F
ROSEAU         CLOUDY    63  55  77 S13G21    29.75F
WARROAD        MOCLDY    61  54  77 S13G20    29.77F
THIEF RVR FALL MOCLDY    64  55  72 SE13      29.77S
CROOKSTON      MOCLDY    66  57  72 S20       29.75F
FOSSTON        PTCLDY    63  54  72 SE15G24   29.81F
DETROIT LAKES  PTCLDY    64  55  72 S10       29.86S
MOORHEAD       MOCLDY    70  59  68 S14       29.79S
PARK RAPIDS    PTCLDY    60  55  83 SE12      29.89R
MAHNOMEN       FAIR      63  56  79 SE13      29.81F
$$
MNZ006-009>011-018-025>026-190300-
   North Central Minnesota

CITY           SKY/WX    TMP DP  RH WIND       PRES   REMARKS
BAUDETTE       MOCLDY    58  52  80 S10G20    29.82F
FLAG ISLAND    MOCLDY    61  54  77 S28       29.75F
INTL FALLS     MOCLDY    54  48  80 S8G18     29.89S
WASKISH        MOCLDY    57  54  88 SE7G17    29.85F
BIG FORK       MOCLDY    54  48  82 SE7       29.93S
LONGVILLE      MOCLDY    55  54  94 SE7       29.92S
GRAND RAPIDS   PTCLDY    50  45  81 SE12G18   29.95F
CRANE LAKE     CLEAR     48  45  87 S8G16     29.97F
ORR            CLOUDY    48  45  87 SE9G17    29.93F
COOK           CLOUDY    48  46  93 SE8       29.97F
WALKER         FAIR      56  53  88 SE7       29.90S
$$
MNZ012-019>021-037-190300-
   Northeast Minnesota

CITY           SKY/WX    TMP DP  RH WIND       PRES   REMARKS
DULUTH         CLOUDY    46  43  89 E14       30.03F
ELY            CLOUDY    45  43  93 S9G16     30.01F
HIBBING        CLOUDY    49  46  90 SE12      29.99F
EVELETH        CLOUDY    46  45  93 SE12      30.01F
DULUTH HARBOR  CLOUDY    52  48  87 NE16      30.05F
TWO HARBORS    CLOUDY    43  39  87 E8        30.05R
SILVER BAY     CLOUDY    41  41 100 NE7       30.06R
GRAND MARAIS     N/A     47  41  80 E8        30.09F
G MARAIS ARPRT CLOUDY    39  36  87 SE5       30.07S FOG
$$
MNZ029>031-032-039>041-046>048-054>057-064-190300-
   West Central Minnesota

CITY           SKY/WX    TMP DP  RH WIND       PRES   REMARKS
FERGUS FALLS   CLEAR     66  54  63 SE13      29.85R
WHEATON        PTCLDY    64  54  68 SE13      29.85S
MORRIS         CLEAR     64  54  68 SE13      29.86F
ALEXANDRIA     CLEAR     63  52  67 SE14      29.90F
ELBOW LAKE     FAIR      64  55  73 SE14      29.86S
WADENA         CLEAR     61  55  82 SE7       29.88F
GLENWOOD       CLEAR     61  54  77 SE10      29.92F
APPLETON       CLEAR     66  54  63 SE10      29.88F
BENSON         CLEAR     64  54  68 S9        29.89F
ORTONVILLE     CLEAR     64  54  68 SE8       29.86S
MADISON        PTCLDY    66  55  68 S9        29.89S
WILLMAR        FAIR      63  52  67 SE8       29.95S
$$
MNZ033>034-036-042>043-049>051-058-059-190300-
   Central Minnesota

CITY           SKY/WX    TMP DP  RH WIND       PRES   REMARKS
ST CLOUD       PTCLDY    63  53  70 SE8       29.95F
SAUK CENTRE    FAIR      60  52  73 SE7       29.93S
PAYNESVILLE    CLEAR     62  52  71 E7        29.94S
AITKIN         MOCLDY    59  54  82 SE7       29.94F
PINE RIVER     PTCLDY    55  54  94 SE9       29.95S
BRAINERD       PTCLDY    58  55  90 SE10      29.94S
STAPLES        PTCLDY    61  55  82 SE6       29.90S
LONG PRAIRIE   FAIR      59  52  77 SE9       29.93S
LITTLE FALLS   PTCLDY    61  54  77 SE7       29.94S
LITCHFIELD     PTCLDY    63  54  72 SE5       29.96S
BUFFALO        PTCLDY    63  53  70 SE5       29.98F
MAPLE LAKE     PTCLDY    64  56  77 SE3       29.97F
$$
MNZ037-044-045-052-053-190300-
   East Central Minnesota

CITY           SKY/WX    TMP DP  RH WIND       PRES   REMARKS
PRINCETON      PTCLDY    63  57  82 E6        29.98S
MORA           PTCLDY    55  52  88 SE6       30.00F
CAMBRIDGE      PTCLDY    63  54  72 SE9       29.97F
RUSH CITY      MOCLDY    58  55  89 SE6       30.00F
MOOSE LAKE     PTCLDY    45  43  93 NE3       30.00F
HINCKLEY       FAIR      55  54  94 E7        30.00F
CLOQUET        CLOUDY    46  45  93 E9        30.02F
MCGREGOR       PTCLDY    50  46  87 E7        29.98F
$$
MNZ071>073-080-081-089-090-097-098-190300-
   Southwest Minnesota

CITY           SKY/WX    TMP DP  RH WIND       PRES   REMARKS
MONTEVIDEO     CLEAR     66  52  59 S10       29.91F
GRANITE FALLS  PTCLDY    64  52  63 SE10      29.93F
CANBY          MOCLDY    65  55  69 S8        29.90S
MARSHALL       PTCLDY    64  52  63 S10       29.91F
REDWOOD FALLS  PTCLDY    62  52  69 S9        29.95R
OLIVIA         PTCLDY    63  52  67 SE8       29.94S
PIPESTONE      PTCLDY    63  54  72 S13       29.93F
WINDOM         PTCLDY    63  52  67 SE9       29.98R
WORTHINGTON    MOCLDY    61  52  72 S9        29.98S
JACKSON        PTCLDY    61  46  59 S8        30.00R
TRACY          MOCLDY    63  52  66 S9        29.95S
SLAYTON        PTCLDY    59  52  79 CALM      29.96F
$$
MNZ065>067-074>077-082>085-091>093-190300-
   South Central Minnesota

CITY           SKY/WX    TMP DP  RH WIND       PRES   REMARKS
MANKATO        PTCLDY    63  50  63 SE12      30.00R
NEW ULM        PTCLDY    63  52  67 S8        29.97S
ST JAMES       PTCLDY    63  48  59 SE7       29.99S
FAIRMONT       CLEAR     57  43  58 S8        30.00S
GLENCOE        PTCLDY    64  51  64 SE8       29.97S
FARIBAULT      CLEAR     64  50  59 SE5       30.03R
OWATONNA       CLEAR     61  52  72 SE5       30.04R
WASECA         PTCLDY    59  48  67 SE7       30.04R
ALBERT LEA     CLEAR     63  54  72 S6        30.03S
$$
MNZ078>079-086>088-094>096-190300-
   Southeast Minnesota

CITY           SKY/WX    TMP DP  RH WIND       PRES   REMARKS
ROCHESTER      CLEAR     58  54  86 SE7       30.07R
RED WING       PTCLDY    63  55  77 SE8       30.03R
STANTON        CLEAR     63  52  68 S7        30.01R
DODGE CENTER   CLEAR     55  52  88 S6        30.05R
WINONA         CLEAR     59  55  88 SE5       30.08R
AUSTIN         CLEAR     61  52  72 SE5       30.05R
PRESTON        CLEAR     60  57  91 SE8       30.08R
$$
ABBREVIATIONS USED IN REMARKS
   TC - TEMPERATURES IN CELSIUS
  WCI - WIND CHILL INDEX
   HX - HEAT INDEX
  VSB - VISIBILITY
$$


USA.gov is the U.S. government's official web portal to all federal, state and local government web resources and services.